CW1353 Weather Reports


time (UTC)temp
F
wind
direction
speed
knots
gust
knots
rain 1hr
in
rain 24hr
in
rain mn
in
humidity
%
barometer
mb
20260506044428 68 156 0.0 3.5 0.00 0.00 0.00 95 1015.2
20260506043421 68 134 0.0 1.7 0.00 0.00 0.00 94 1015.2
20260506042433 68 134 0.0 4.3 0.00 0.00 0.00 94 1015.3
20260506041427 68 174 0.0 1.7 0.00 0.00 0.00 94 1015.3
20260506040450 68 182 0.0 0.9 0.00 0.00 0.00 93 1015.4
20260506035423 69 182 0.0 2.6 0.00 0.00 0.00 93 1015.4
20260506034435 68 127 0.0 1.7 0.00 0.00 0.00 93 1015.4
20260506033447 69 126 0.9 3.5 0.00 0.00 0.00 93 1015.7
20260506032420 69 117 0.9 1.7 0.00 0.00 0.00 92 1015.8
20260506031444 69 116 0.0 1.7 0.00 0.00 0.00 92 1016.1
20260506030437 69 126 0.0 1.7 0.00 0.00 0.00 91 1015.8
20260506025420 69 126 0.0 3.5 0.00 0.00 0.00 91 1015.8
20260506024503 69 138 0.0 1.7 0.00 0.00 0.00 90 1015.8
20260506023419 70 138 0.0 1.7 0.00 0.00 0.00 90 1015.5
20260506022431 70 138 0.9 3.5 0.00 0.00 0.00 89 1015.4
20260506021445 70 138 1.7 5.2 0.00 0.00 0.00 89 1015.1
20260506020419 70 122 0.0 1.7 0.00 0.00 0.00 88 1015.1
20260506015443 70 121 0.0 1.7 0.00 0.00 0.00 88 1015.2
20260506014436 71 121 0.0 1.7 0.00 0.00 0.00 87 1015.2
20260506013431 71 121 0.9 1.7 0.00 0.00 0.00 87 1015.2
20260506012426 71 121 0.9 2.6 0.00 0.00 0.00 86 1015.4
20260506011421 71 120 0.9 3.5 0.00 0.00 0.00 86 1015.3
20260506010415 72 182 0.9 1.7 0.00 0.00 0.00 85 1015.3
20260506005431 72 180 0.0 4.3 0.00 0.00 0.00 84 1015.0
20260506004423 72 170 0.9 3.5 0.00 0.00 0.00 84 1015.0
20260506003416 73 175 1.7 5.2 0.00 0.00 0.00 83 1015.0
20260506002440 73 158 0.9 5.2 0.00 0.00 0.00 82 1015.0
20260506001434 73 155 1.7 4.3 0.00 0.00 0.00 82 1014.9
20260506000423 73 197 1.7 5.2 0.00 0.00 0.00 81 1015.0
20260505235416 74 158 2.6 7.0 0.00 0.00 0.00 81 1014.9
20260505234430 74 177 3.5 6.1 0.00 0.00 0.00 80 1014.8
20260505233423 74 171 3.5 7.0 0.00 0.00 0.00 79 1015.0
20260505232418 75 143 2.6 7.0 0.00 0.00 0.00 79 1014.9
20260505231441 75 188 4.3 9.6 0.00 0.00 0.00 78 1014.9
20260505230454 75 121 3.5 7.8 0.00 0.00 0.00 77 1014.7
20260505225425 76 171 1.7 8.7 0.00 0.00 0.00 75 1015.0
20260505224438 76 171 3.5 8.7 0.00 0.00 0.00 74 1014.8
20260505223438 77 244 5.2 10.4 0.00 0.00 0.00 73 1014.7
20260505222434 77 144 3.5 8.7 0.00 0.00 0.00 73 1014.8
20260505221427 76 164 4.3 9.6 0.00 0.00 0.00 73 1014.8
20260505220442 77 136 5.2 10.4 0.00 0.00 0.00 71 1014.6
20260505215430 77 215 4.3 10.4 0.00 0.00 0.00 71 1014.4
20260505214422 78 140 5.2 11.3 0.00 0.00 0.00 70 1014.3
20260505213425 78 225 4.3 9.6 0.00 0.00 0.00 70 1014.5
20260505212417 78 40 4.3 10.4 0.00 0.00 0.00 71 1014.4
20260505211448 78 171 5.2 12.2 0.00 0.00 0.00 69 1014.4
20260505210419 79 218 4.3 11.3 0.00 0.00 0.00 70 1014.6
20260505205415 79 232 5.2 12.2 0.00 0.00 0.00 68 1014.6
20260505204434 79 153 6.1 8.7 0.00 0.00 0.00 69 1014.7
20260505203449 79 208 5.2 9.6 0.00 0.00 0.00 69 1014.9
20260505202422 79 145 2.6 10.4 0.00 0.00 0.00 68 1015.0
20260505201442 79 161 4.3 8.7 0.00 0.00 0.00 68 1015.1
20260505200437 79 236 5.2 9.6 0.00 0.00 0.00 67 1015.2
20260505195429 79 259 5.2 11.3 0.00 0.00 0.00 67 1015.5
20260505194445 78 203 5.2 13.0 0.00 0.00 0.00 68 1015.6
20260505193418 79 199 6.1 12.2 0.00 0.00 0.00 68 1015.6
20260505192432 79 204 4.3 9.6 0.00 0.00 0.00 68 1015.8
20260505191427 79 161 5.2 12.2 0.00 0.00 0.00 67 1015.9
20260505190430 80 231 3.5 12.2 0.00 0.00 0.00 66 1015.8
20260505185420 79 148 4.3 10.4 0.00 0.00 0.00 65 1015.8
20260505184432 79 209 5.2 10.4 0.00 0.00 0.00 65 1015.9
20260505183423 79 68 4.3 11.3 0.00 0.00 0.00 67 1015.9
20260505182432 78 197 4.3 11.3 0.00 0.00 0.00 66 1016.1
20260505181426 78 229 2.6 12.2 0.00 0.00 0.00 66 1016.2
20260505180421 78 150 5.2 10.4 0.00 0.00 0.00 69 1016.2
20260505175442 78 196 4.3 8.7 0.00 0.00 0.00 68 1016.1
20260505174436 78 187 6.1 15.6 0.00 0.00 0.00 68 1016.1
20260505173429 78 193 3.5 11.3 0.00 0.00 0.00 71 1016.4
20260505172443 78 186 4.3 10.4 0.00 0.00 0.00 70 1016.4
20260505171443 78 155 4.3 9.6 0.00 0.00 0.00 70 1016.5
20260505170432 77 283 3.5 8.7 0.00 0.00 0.00 70 1016.4
20260505165423 77 275 3.5 7.8 0.00 0.00 0.00 69 1016.5
20260505164415 77 202 5.2 12.2 0.00 0.00 0.00 69 1016.4
20260505163443 77 106 5.2 9.6 0.00 0.00 0.00 70 1016.4
20260505162443 76 209 4.3 13.0 0.00 0.00 0.00 71 1016.4
20260505161417 77 113 4.3 10.4 0.00 0.00 0.00 71 1016.3
20260505160427 77 197 5.2 11.3 0.00 0.00 0.00 69 1016.2
20260505152440 76 187 3.5 8.7 0.00 0.00 0.00 70 1016.4
20260505151440 75 188 4.3 13.0 0.00 0.00 0.00 71 1016.2
20260505150429 75 233 6.1 13.0 0.00 0.00 0.00 70 1016.2
20260505140427 73 183 2.6 6.1 0.00 0.00 0.00 77 1016.3
20260505124432 63 15 0.9 1.7 0.00 0.00 0.00 95 1015.9
20260505123422 61 15 0.0 1.7 0.00 0.00 0.00 99 1015.9
20260505122440 59 204 0.0 0.9 0.00 0.00 0.00 100 1015.8
20260505121429 57 204 0.0 0.0 0.00 0.00 0.00 100 1015.9
20260505120420 56 204 0.0 0.0 0.00 0.00 0.00 100 1015.7
20260505115415 55 204 0.0 0.0 0.00 0.00 0.00 100 1015.6
20260505114426 54 204 0.0 0.9 0.00 0.00 0.00 99 1015.5
20260505113450 54 204 0.0 0.0 0.00 0.00 0.00 99 1015.5
20260505112422 54 204 0.0 0.9 0.00 0.00 0.00 99 1015.4
20260505111416 54 204 0.0 0.0 0.00 0.00 0.00 99 1015.3
20260505110429 54 204 0.0 0.0 0.00 0.00 0.00 99 1015.3
20260505101433 54 204 0.0 0.0 0.00 0.00 0.00 99 1015.2
20260505100428 54 204 0.0 0.0 0.00 0.00 0.00 99 1015.1
20260505095421 53 204 0.0 0.0 0.00 0.00 0.00 99 1015.2
20260505094416 53 204 0.0 0.0 0.00 0.00 0.00 99 1015.0
20260505093451 53 204 0.0 0.0 0.00 0.00 0.00 99 1015.0
20260505092453 53 204 0.0 0.0 0.00 0.00 0.00 99 1014.9
20260505091426 53 204 0.0 0.0 0.00 0.00 0.00 98 1015.0
20260505090419 53 204 0.0 0.0 0.00 0.00 0.00 98 1014.9
20260505085432 53 204 0.0 0.0 0.00 0.00 0.00 98 1015.0
20260505084425 53 204 0.0 0.0 0.00 0.00 0.00 98 1015.2
20260505083415 53 204 0.0 0.0 0.00 0.00 0.00 98 1015.1
20260505082433 54 204 0.0 0.0 0.00 0.00 0.00 98 1015.0
20260505081424 54 204 0.0 0.0 0.00 0.00 0.00 98 1015.0
20260505080418 54 204 0.0 0.0 0.00 0.00 0.00 97 1015.0
20260505075429 54 204 0.0 0.0 0.00 0.00 0.00 97 1015.2
20260505074420 54 204 0.0 0.0 0.00 0.00 0.00 97 1015.1
20260505073427 54 204 0.0 0.0 0.00 0.00 0.00 97 1015.2
20260505072449 54 204 0.0 0.0 0.00 0.00 0.00 97 1015.2
20260505071439 54 204 0.0 0.9 0.00 0.00 0.00 97 1015.1
20260505070441 54 204 0.0 0.9 0.00 0.00 0.00 97 1015.2
20260505065434 54 204 0.0 0.9 0.00 0.00 0.00 97 1015.2
20260505064428 55 204 0.0 0.0 0.00 0.00 0.00 97 1015.5
20260505063420 55 204 0.0 0.0 0.00 0.00 0.00 97 1015.6
20260505062433 55 204 0.0 0.0 0.00 0.00 0.00 96 1015.6
20260505061426 55 204 0.0 0.0 0.00 0.00 0.00 96 1015.8
20260505060417 55 204 0.0 0.0 0.00 0.00 0.00 96 1016.0
20260505055435 55 204 0.0 0.0 0.00 0.00 0.00 96 1016.0
20260505054427 56 204 0.0 0.9 0.00 0.00 0.00 96 1016.1
20260505053419 56 204 0.0 0.9 0.00 0.00 0.00 96 1016.1
20260505052432 56 204 0.0 0.0 0.00 0.00 0.00 95 1016.4
20260505051426 56 204 0.0 0.0 0.00 0.00 0.00 95 1016.3
20260505050416 56 204 0.0 0.0 0.00 0.00 0.00 95 1016.4